Wind_Speed
39 37 35 33 32 31 30 29 29 28 28 28 27 27 27 27 27 26 26 26 26 27 27 27 27 27 27 27 28 28 28 28 30 30 30 30 31 32 33 33 34 35 36
42 40 38 36 35 34 33 32 31 31 30 30 29 30 29 29 29 29 29 29 29 29 29 29 29 29 29 29 29 29 30 30 31 31 31 32 33 33 34 35 35 36 37
45 43 41 39 38 36 35 34 34 33 33 32 31 31 31 31 30 31 31 31 31 31 31 31 31 31 31 31 31 31 32 32 32 32 33 33 34 35 35 36 36 37 38
47 45 44 42 41 39 38 37 36 36 35 34 33 32 32 33 33 33 33 33 33 33 33 33 33 33 33 33 33 33 33 33 33 33 33 34 35 36 37 37 37 38 39
49 48 46 45 43 42 40 38 38 37 37 37 35 35 34 35 35 35 35 35 35 35 35 35 35 35 35 35 35 35 35 35 34 35 35 36 37 37 38 38 38 39 40
50 49 47 46 45 43 42 41 40 40 39 39 38 38 37 37 37 36 36 37 37 37 36 37 37 37 37 37 37 36 36 36 36 36 36 37 37 38 39 39 40 40 41
50 48 49 47 46 45 44 43 43 43 42 41 40 40 39 39 39 38 38 39 39 38 38 38 39 39 39 39 38 37 37 38 37 37 38 38 38 39 40 41 41 41 41
50 51 51 50 48 46 46 45 45 44 43 43 43 42 41 40 40 40 40 40 40 40 41 40 40 40 39 39 38 38 38 39 39 39 39 39 40 40 41 41 41 42 42
52 53 53 52 51 49 48 48 47 47 46 45 44 43 43 42 42 41 42 41 42 42 42 42 41 41 41 40 40 40 41 41 40 40 40 40 41 41 42 42 42 42 42
51 51 52 52 52 52 51 51 50 49 49 48 47 46 46 44 43 42 41 41 42 42 42 42 42 42 42 42 42 42 42 41 41 41 41 41 42 41 41 41 42 43 43
49 49 50 51 53 54 53 52 52 51 50 49 47 47 46 46 46 46 45 44 44 44 44 43 43 43 43 43 43 42 42 41 42 42 41 42 41 41 42 42 43 44 43
47 47 48 49 51 52 51 51 52 52 51 49 47 47 48 47 46 47 47 46 45 45 44 44 44 44 44 44 44 44 43 42 42 41 42 42 42 42 43 43 44 44 43
47 47 47 48 50 52 51 51 52 52 50 49 48 49 50 49 48 48 48 48 47 46 45 45 45 45 45 44 44 44 43 42 42 42 42 42 43 43 43 44 44 44 43
44 45 46 46 47 49 50 51 52 51 51 50 50 50 51 52 50 49 50 50 50 48 47 47 47 47 45 43 43 43 42 42 42 43 43 42 43 43 44 44 43 43 42
43 44 45 45 46 48 50 51 51 51 51 50 50 51 50 50 50 51 50 50 50 49 47 47 47 45 44 43 42 43 43 43 43 43 43 43 43 44 44 43 42 42 41
41 42 42 42 43 45 47 50 50 49 49 50 50 51 51 50 50 50 50 49 49 48 46 45 45 44 43 42 43 43 43 43 43 43 44 44 44 43 43 42 42 41 40
40 41 42 42 42 42 44 47 49 50 50 50 51 52 52 52 51 51 51 50 49 48 47 46 46 45 44 44 44 44 44 44 44 44 44 44 43 43 42 42 41 40 39
41 42 42 43 45 45 46 47 49 51 52 52 53 53 54 54 53 53 52 52 51 50 49 49 49 47 46 46 46 45 46 46 45 45 44 43 43 42 42 41 40 38 36
40 42 42 43 45 47 49 50 51 52 54 55 55 55 55 54 54 53 52 52 51 51 50 50 49 49 49 49 48 47 47 47 46 45 44 43 42 41 40 39 37 36 34
38 40 42 43 44 45 47 49 50 53 55 57 57 57 57 55 55 55 55 54 52 51 51 50 50 50 50 50 49 49 48 46 45 44 42 41 40 39 39 37 36 34 32
36 39 42 43 45 45 46 47 49 51 54 56 57 57 56 56 55 55 55 54 53 52 51 51 51 51 51 51 50 49 47 45 43 42 41 40 39 38 37 35 34 32 30
38 40 42 42 44 45 46 47 49 51 52 53 54 54 55 56 55 55 54 54 52 52 51 52 51 51 50 49 48 46 45 43 42 41 40 39 38 37 35 34 32 30 29
38 40 41 42 43 44 46 47 48 49 51 51 52 53 54 56 56 56 56 54 53 52 51 51 51 50 49 48 46 44 42 41 41 40 39 38 37 36 34 32 31 29 27
37 39 41 42 43 44 45 45 47 48 49 49 49 50 51 53 54 54 53 51 50 50 50 50 49 47 46 46 44 42 41 41 41 39 38 37 35 35 33 31 30 28 26
35 37 40 42 43 44 45 47 48 48 47 47 47 47 48 49 50 51 51 49 48 47 47 46 46 45 44 43 42 41 41 40 39 39 37 36 34 33 32 30 29 28 27
35 37 39 41 42 43 45 46 45 45 44 44 44 44 45 46 46 47 47 47 46 45 45 45 44 43 41 41 41 41 40 39 38 37 36 35 34 32 31 30 28 27 26
Wind_Direction
242 244 246 248 250 251 252 253 254 255 256 256 258 258 258 258 259 261 263 266 268 270 273 276 280 283 286 289 292 295 299 302 304 306 307 309 310 311 312 313 314 315 316
242 244 245 247 249 250 252 253 254 255 256 258 259 258 259 259 260 262 264 266 268 270 273 276 279 282 285 288 290 293 296 299 302 304 305 307 309 310 311 312 312 313 314
241 242 244 246 248 250 252 253 254 255 256 258 259 260 259 260 262 263 265 266 268 270 273 276 278 281 284 286 289 291 294 297 299 301 303 305 307 309 309 310 311 311 313
241 242 244 245 247 249 250 252 254 255 256 258 259 259 260 262 263 264 266 267 269 270 272 275 278 280 282 284 287 290 292 294 297 299 301 303 305 306 307 308 308 309 311
241 242 243 244 246 248 249 250 253 255 256 258 259 260 261 263 264 264 265 266 268 271 272 274 277 279 281 283 286 287 289 291 294 296 298 301 302 303 305 306 306 307 309
240 241 242 242 245 247 248 250 252 254 256 258 259 260 261 262 263 264 265 266 268 271 273 274 276 278 280 282 284 285 287 289 292 294 297 299 300 302 304 304 305 306 307
238 239 241 242 244 247 249 251 253 254 256 258 260 261 261 262 262 263 265 267 269 271 272 274 275 277 279 280 281 283 285 287 290 292 295 297 298 300 302 303 304 305 306
237 240 242 243 245 246 249 251 254 255 256 258 259 261 261 262 263 264 264 267 269 271 272 273 275 277 278 279 280 283 285 287 288 290 292 294 295 298 300 301 302 303 304
239 241 242 242 244 247 249 251 252 254 255 256 257 259 261 261 263 264 265 267 269 271 272 273 275 277 277 278 279 282 284 285 286 288 290 293 294 296 298 299 300 301 303
241 241 242 243 244 246 249 250 251 252 253 255 256 259 261 262 264 265 266 267 269 270 271 272 275 276 276 278 279 281 283 283 285 288 289 291 294 295 297 298 299 300 302
241 242 243 245 246 247 248 249 251 252 253 256 258 260 262 263 266 266 266 268 269 270 271 272 274 275 276 277 278 279 282 282 284 286 288 290 292 294 295 297 298 299 301
241 241 245 247 246 246 247 248 251 253 255 256 258 259 261 263 266 266 266 268 268 268 271 272 273 274 276 277 276 278 280 281 283 284 286 289 290 292 294 296 298 299 300
242 243 245 248 247 247 247 249 251 253 254 256 257 259 261 263 264 265 265 266 267 268 271 272 273 275 276 276 275 278 278 280 282 284 286 288 289 291 293 295 297 297 298
242 244 246 248 249 249 248 249 251 253 254 256 257 259 262 263 263 263 265 267 267 269 270 272 273 275 274 273 274 276 277 279 282 284 285 287 289 289 292 294 295 296 298
245 246 248 249 251 252 251 251 251 253 254 255 257 258 260 261 262 263 264 266 266 268 270 273 274 273 271 271 274 276 278 280 282 284 285 286 287 289 291 292 294 296 297
248 249 249 252 253 254 254 252 253 252 253 255 257 259 260 261 262 264 265 265 266 267 269 272 272 270 269 270 273 276 278 279 281 283 284 285 286 288 290 292 293 294 295
249 249 252 252 253 255 256 255 255 254 256 257 259 260 260 261 263 265 265 265 267 267 268 269 269 268 269 271 273 275 277 279 281 282 283 284 285 287 289 291 291 293 294
252 252 255 255 254 256 258 259 259 258 258 258 259 260 261 263 263 264 265 266 267 265 267 268 268 268 269 270 273 275 276 278 279 280 281 282 283 285 287 289 290 291 292
256 255 257 257 257 259 260 261 260 260 259 259 260 261 261 262 262 264 265 266 265 265 265 266 267 269 269 270 272 274 275 276 277 278 279 281 282 283 286 287 289 290 289
262 259 259 260 261 262 263 261 260 260 260 260 261 262 262 262 262 263 263 265 265 264 265 265 267 269 270 270 272 272 272 273 274 276 278 280 281 282 284 286 287 287 287
266 265 264 264 263 263 264 263 264 265 263 262 263 263 263 262 262 262 262 262 263 264 264 265 267 268 269 270 270 270 269 271 273 275 277 278 280 281 282 284 284 284 284
271 269 267 266 265 264 264 266 266 267 266 264 262 261 260 260 261 260 260 261 262 263 264 266 267 267 268 268 267 266 267 270 272 273 275 276 277 278 279 280 281 281 280
274 270 268 268 267 264 264 266 267 267 267 265 263 260 259 259 259 259 259 259 262 264 265 265 265 265 266 264 264 265 267 268 270 271 271 272 273 275 277 278 278 277 276
278 273 270 269 269 268 265 265 265 266 266 265 263 261 260 258 258 259 258 259 261 262 262 262 263 264 264 263 263 264 265 267 268 268 269 270 271 272 274 275 275 275 273
283 278 275 273 272 271 269 268 267 265 264 263 262 261 259 258 257 257 257 257 259 259 259 260 260 261 261 261 261 262 263 264 266 267 267 268 269 271 271 272 272 271 269
288 284 280 277 275 274 274 271 269 266 265 263 262 260 258 257 256 255 255 256 256 257 258 258 258 259 259 258 259 260 261 262 263 264 265 266 267 268 268 268 268 267 266
Height
5826 5829 5831 5833 5835 5837 5838 5839 5841 5842 5842 5843 5843 5844 5844 5844 5845 5845 5845 5845 5844 5844 5843 5842 5841 5840 5839 5838 5836 5834 5832 5830 5827 5825 5822 5819 5816 5813 5810 5806 5803 5799 5795
5818 5821 5824 5827 5829 5830 5832 5833 5835 5836 5837 5837 5838 5838 5838 5839 5839 5839 5839 5839 5839 5838 5838 5837 5836 5835 5834 5832 5831 5829 5827 5825 5822 5819 5817 5814 5811 5808 5804 5801 5797 5794 5789
5810 5813 5816 5819 5821 5823 5825 5827 5828 5829 5830 5831 5831 5832 5832 5833 5833 5833 5833 5833 5833 5832 5832 5831 5830 5829 5828 5826 5825 5823 5821 5819 5817 5814 5811 5809 5806 5802 5799 5795 5792 5788 5784
5801 5805 5808 5811 5813 5815 5817 5819 5821 5822 5823 5824 5825 5825 5826 5826 5827 5827 5827 5827 5826 5826 5825 5824 5824 5822 5821 5820 5819 5817 5815 5813 5810 5808 5805 5802 5799 5796 5793 5789 5785 5781 5777
5792 5796 5799 5802 5805 5807 5809 5811 5813 5814 5815 5816 5817 5818 5819 5819 5820 5820 5820 5820 5819 5819 5818 5817 5816 5815 5814 5813 5811 5810 5808 5806 5804 5801 5799 5796 5793 5789 5786 5782 5778 5775 5771
5782 5786 5789 5793 5796 5798 5801 5803 5805 5806 5807 5808 5809 5810 5811 5811 5812 5812 5812 5812 5812 5811 5811 5810 5809 5808 5807 5805 5804 5802 5800 5798 5796 5794 5791 5789 5785 5782 5779 5775 5771 5767 5763
5772 5776 5780 5783 5786 5789 5792 5794 5796 5798 5799 5800 5801 5801 5802 5803 5804 5804 5804 5804 5804 5803 5803 5802 5801 5800 5799 5797 5796 5794 5792 5791 5789 5786 5784 5781 5778 5774 5771 5767 5763 5760 5756
5762 5766 5770 5773 5777 5779 5782 5785 5787 5788 5790 5791 5792 5792 5793 5795 5795 5795 5795 5795 5795 5794 5794 5793 5792 5791 5790 5789 5787 5786 5784 5782 5780 5778 5775 5773 5770 5766 5763 5759 5755 5752 5748
5751 5755 5759 5762 5766 5769 5772 5775 5777 5779 5780 5781 5782 5783 5784 5785 5785 5786 5786 5786 5785 5785 5784 5784 5783 5782 5781 5780 5778 5777 5775 5773 5771 5769 5767 5764 5761 5758 5754 5751 5747 5744 5740
5741 5745 5749 5752 5755 5758 5761 5764 5766 5767 5769 5770 5771 5773 5774 5775 5775 5776 5776 5776 5775 5775 5774 5774 5773 5772 5771 5770 5769 5768 5766 5764 5762 5760 5758 5755 5752 5749 5746 5742 5739 5735 5732
5731 5735 5738 5741 5744 5747 5750 5752 5754 5756 5757 5759 5760 5761 5762 5763 5764 5765 5765 5766 5765 5764 5764 5763 5763 5762 5762 5761 5759 5758 5756 5755 5753 5751 5748 5746 5743 5740 5737 5733 5730 5726 5723
5722 5725 5727 5730 5733 5735 5738 5740 5742 5744 5746 5747 5749 5750 5751 5752 5753 5753 5754 5754 5754 5754 5753 5753 5752 5752 5751 5750 5749 5748 5746 5745 5743 5741 5739 5736 5733 5730 5727 5724 5721 5717 5714
5712 5715 5717 5719 5721 5724 5726 5728 5730 5732 5734 5735 5737 5739 5740 5741 5741 5742 5742 5742 5742 5742 5742 5742 5741 5741 5740 5739 5738 5737 5736 5734 5733 5731 5729 5726 5724 5721 5718 5715 5712 5708 5705
5701 5704 5707 5708 5710 5712 5713 5716 5718 5720 5722 5724 5726 5727 5728 5729 5729 5729 5730 5730 5730 5730 5730 5730 5730 5729 5728 5728 5727 5726 5725 5723 5722 5720 5719 5716 5714 5711 5708 5705 5702 5699 5696
5691 5694 5696 5698 5699 5701 5702 5703 5705 5708 5710 5712 5713 5715 5716 5716 5717 5717 5717 5718 5718 5718 5719 5719 5718 5717 5717 5717 5716 5715 5714 5713 5712 5710 5708 5706 5704 5701 5698 5696 5693 5690 5686
5682 5684 5686 5687 5689 5689 5690 5692 5693 5695 5697 5699 5700 5702 5703 5703 5704 5704 5705 5705 5705 5705 5706 5707 5706 5706 5706 5705 5705 5704 5703 5702 5701 5699 5697 5695 5693 5691 5688 5686 5683 5680 5677
5672 5674 5675 5677 5678 5678 5679 5680 5682 5683 5684 5686 5687 5688 5690 5690 5691 5691 5691 5691 5692 5692 5693 5694 5694 5694 5694 5694 5693 5692 5691 5690 5689 5688 5686 5685 5682 5680 5678 5676 5673 5671 5668
5661 5663 5664 5665 5666 5667 5667 5667 5669 5670 5671 5672 5674 5675 5676 5676 5677 5677 5677 5678 5678 5679 5679 5680 5681 5681 5681 5681 5681 5680 5680 5679 5678 5677 5675 5674 5672 5670 5668 5666 5664 5662 5660
5650 5651 5652 5653 5653 5654 5654 5654 5655 5656 5657 5658 5659 5660 5661 5661 5662 5663 5663 5664 5665 5665 5666 5666 5667 5668 5668 5668 5668 5668 5667 5667 5666 5665 5664 5662 5661 5659 5658 5656 5654 5652 5651
5638 5639 5639 5639 5639 5640 5640 5640 5640 5641 5641 5642 5643 5644 5645 5646 5647 5648 5649 5649 5650 5651 5651 5652 5653 5654 5654 5654 5655 5655 5655 5654 5654 5654 5653 5652 5651 5650 5648 5646 5645 5643 5642
5626 5625 5625 5625 5625 5625 5625 5625 5625 5625 5625 5626 5626 5627 5628 5629 5631 5632 5633 5634 5635 5636 5637 5638 5639 5640 5640 5641 5641 5641 5642 5642 5642 5642 5642 5641 5640 5640 5639 5637 5636 5635 5633
5613 5612 5612 5612 5611 5611 5611 5610 5610 5609 5609 5609 5609 5611 5612 5613 5615 5617 5618 5619 5620 5622 5623 5624 5625 5625 5626 5627 5628 5628 5629 5629 5630 5631 5631 5630 5630 5630 5629 5628 5627 5626 5625
5601 5599 5599 5598 5597 5597 5596 5595 5594 5593 5593 5593 5593 5594 5595 5597 5599 5601 5602 5603 5605 5606 5607 5609 5610 5611 5612 5614 5615 5616 5616 5617 5619 5619 5619 5619 5619 5620 5619 5618 5618 5618 5617
5588 5587 5586 5584 5583 5582 5581 5580 5578 5577 5577 5577 5577 5578 5579 5581 5583 5585 5587 5588 5590 5591 5592 5594 5596 5597 5599 5600 5602 5604 5605 5606 5607 5608 5609 5609 5609 5610 5610 5609 5609 5609 5609
5576 5574 5572 5570 5569 5568 5566 5564 5563 5562 5561 5561 5562 5562 5563 5565 5568 5570 5571 5574 5575 5576 5577 5579 5582 5583 5585 5587 5590 5592 5593 5595 5596 5597 5598 5599 5599 5599 5600 5600 5600 5601 5601
5564 5561 5559 5556 5555 5553 5551 5549 5547 5546 5546 5547 5547 5547 5548 5550 5552 5554 5556 5558 5561 5562 5564 5566 5568 5570 5572 5575 5577 5580 5582 5583 5585 5586 5587 5588 5589 5590 5591 5591 5592 5592 5593